Retour au catalogue

STARLINK-33728

ActifCommunicationsVLEO
NORAD 63715·PAYLOAD·🇺🇸 United States

Lancé Apr 28, 2025 depuis Vandenberg Space Force Base

Loading…

Prochains Passages (prochaines 24 heures)

TLE

FraisSource: CelesTrak SupGP

Époque: Sep 15, 2026, 03:15 UTC

1 63715C 25087U   26258.13590278 -.00019576  00000+0 -57827-3 0  2581
2 63715  53.1607  58.7522 0001110  76.9914  28.1535 15.34406618    17

Suivez STARLINK-33728 en temps réel avec AllMySat

Download on the App Store